GPS BIII-8 (PRN 21)

Last updated on Wed Jun 24 2026 00:03:27 GMT+0000 (Coordinated Universal Time)

1 64202U 25116A 26173.81774213 -.00000100 00000+0 00000+0 0 9991 2 64202 55.2389 30.9030 0008331 339.0573 198.5850 2.00575624 7989
UTC large
Height (km)
Speed (km/s)
/
Latitude / Longitude
Inclination (degrees)
Orbital Period (minutes)
Azimuth
Elevation
Range (km)
Doppler Factor

Next 0 passes for location: London (51.5072 / 0.1276)

No passes found over London.
GPS BIII-8 (PRN 21)